Regional Weather Roundup
Issued by NWS

Home | Current Version | Previous Version | Text Only | Print | Product List | Glossary Off
Versions: 1 2 3 4 5 6 7 8 9 10 11 12 13 14 15 16 17 18 19 20 21 22 23 24 25 26 27 28 29 30 31 32 33 34 35 36 37 38 39 40 41 42 43 44 45 46 47 48 49 50

000
ASUS43 KMPX 290201
RWRMN
WEATHER ROUNDUP FOR MINNESOTA
NATIONAL WEATHER SERVICE TWIN CITIES/CHANHASSEN MN
800 PM CST WED JAN 28 2015


NOTE: "FAIR" INDICATES FEW OR NO CLOUDS BELOW 12,000 FEET WITH NO
SIGNIFICANT WEATHER AND/OR OBSTRUCTIONS TO VISIBILITY. N/A MEANS
CURRENT SKY AND/OR WEATHER CONDITIONS ARE NOT AVAILABLE.

MNZ060>063-068>070-290300-
   Twin Cities Metro

CITY           SKY/WX    TMP DP  RH WIND       PRES   REMARKS
TWIN CITIES    FRZ DRZL  30  28  92 VRB3      29.83R FOG
ST PAUL        CLOUDY    31  29  92 CALM      29.85R FOG
CRYSTAL        CLOUDY    31  29  92 NE5       29.82R FOG     WCI  26
LAKEVILLE      MOCLDY    28  28 100 NE5       29.81S FOG     WCI  23
EDEN PRAIRIE   FOG       31  29  92 NE6       29.81S VSB 1   WCI  25
SOUTH ST PAUL  CLOUDY    32  29  90 CALM      29.83R FOG
LAKE ELMO      CLOUDY    32  30  93 CALM      29.84R FOG
$$
MNZ001>005-007-008-013>017-022>024-027-028-290300-
   Northwest Minnesota

CITY           SKY/WX    TMP DP  RH WIND       PRES   REMARKS
BEMIDJI        LGT RAIN  32  32  99 NW8       29.82S WCI  25
HALLOCK        CLOUDY    23  21  93 NW24G30   29.98R WCI   7
ROSEAU         CLOUDY    32  28  86 NW16      29.89R WCI  21
WARROAD        CLOUDY    32  28  86 NW13      29.88R WCI  22
THIEF RVR FALL CLOUDY    30  30 100 NW20      29.90R WCI  18
CROOKSTON      CLOUDY    28  28 100 N22       29.95R FOG     WCI  15
FOSSTON        MIX PCPN  30  30 100 NW13      29.87R WCI  20
DETROIT LAKES  CLOUDY    32  32 100 NW15      29.87R FOG     WCI  22
MOORHEAD       CLOUDY    34  34 100 N22       29.92R WCI  22
PARK RAPIDS    CLOUDY    32  31  96 W5        29.82R FOG     WCI  27
MAHNOMEN       CLOUDY    32  31  97 NW14G21   29.86R FOG     WCI  22
$$
MNZ006-009>011-018-025>026-290300-
   North Central Minnesota

CITY           SKY/WX    TMP DP  RH WIND       PRES   REMARKS
BAUDETTE       LGT SNOW  32  30  92 NW13      29.83R FOG     WCI  22
FLAG ISLAND    CLOUDY    28  28 100 NW10      29.86R WCI  19
INTL FALLS     CLOUDY    27  25  92 SW3       29.81S FOG
WASKISH        CLOUDY    32  30  93 CALM      29.83R FOG
BIG FORK       MIX PCPN  28  27  93 CALM      29.82S
LONGVILLE      CLOUDY    28  28 100 CALM      29.82S FOG
GRAND RAPIDS   CLOUDY    27  27 100 S5        29.82S WCI  21
CRANE LAKE     CLOUDY    25  25 100 CALM      29.84S FOG
ORR            CLOUDY    25  23  93 CALM      29.79F FOG
COOK           CLOUDY    25  25 100 CALM      29.82S FOG
WALKER         FOG       30  30  99 CALM      29.82S VSB 1
$$
MNZ012-019>021-037-290300-
   Northeast Minnesota

CITY           SKY/WX    TMP DP  RH WIND       PRES   REMARKS
DULUTH         CLOUDY    29  23  78 SW6       29.82S WCI  23
ELY            CLOUDY    25  25 100 CALM      29.81S FOG
HIBBING        CLOUDY    28  24  85 VRB3      29.82S FOG
EVELETH        CLOUDY    28  27  93 SW3       29.83S FOG
DULUTH HARBOR  CLOUDY    30  27  86 CALM      29.87R
TWO HARBORS    CLOUDY    30  25  80 CALM      29.82S
SILVER BAY     CLOUDY    28  25  86 CALM      29.81S
GRAND MARAIS     N/A     29  26  89 CALM      29.83F
G MARAIS ARPRT   N/A     25  19  80 CALM      29.78F FOG
$$
MNZ029>031-032-039>041-046>048-054>057-064-290300-
   West Central Minnesota

CITY           SKY/WX    TMP DP  RH WIND       PRES   REMARKS
FERGUS FALLS   CLOUDY    32  32 100 N16G23    29.90R FOG     WCI  21
WHEATON        CLOUDY    30  30 100 NW16G22   29.91R FOG     WCI  19
MORRIS         FOG       32  32 100 NW6       29.85R VSB<1/4 WCI  26
ALEXANDRIA     FOG       31  30  96 NW6       29.84R VSB 1/2 WCI  25
ELBOW LAKE     FOG       31  31 100 NW5       29.86R VSB 1/4 WCI  27
WADENA         FOG       30  30 100 CALM      29.84R VSB 3/4
GLENWOOD       FOG       30  30 100 CALM      29.84S VSB 3/4
APPLETON       FOG       34  32  93 NW3       29.86R VSB 1/2
BENSON         FOG       32  32 100 CALM      29.85R VSB 1/2
ORTONVILLE     CLOUDY    34  30  86 NW20      29.87R FOG     WCI  22
MADISON        CLOUDY    36  36 100 N6        29.86R FOG
WILLMAR        CLOUDY    34  30  86 N3        29.84S FOG
$$
MNZ033>034-036-042>043-049>051-058-059-290300-
   Central Minnesota

CITY           SKY/WX    TMP DP  RH WIND       PRES   REMARKS
ST CLOUD       CLOUDY    29  28  96 NE3       29.84R FOG
SAUK CENTRE    CLOUDY    30  30 100 CALM      29.84R FOG
PAYNESVILLE    CLOUDY    28  28 100 CALM      29.84S FOG
AITKIN         CLOUDY    30  27  86 CALM      29.83S FOG
PINE RIVER     FOG       28  28 100 CALM      29.87S VSB 1
BRAINERD       FOG       28  28 100 CALM      29.84S VSB 3/4
STAPLES        FOG       28  28 100 CALM      29.84R VSB 3/4
LONG PRAIRIE   FOG       30  30 100 CALM      29.84R VSB 1
LITTLE FALLS   CLOUDY    30  28  93 CALM      29.84S FOG
LITCHFIELD     CLOUDY    32  32 100 CALM      29.83S FOG
BUFFALO        CLOUDY    30  29  95 N3        29.84S FOG
MAPLE LAKE     CLOUDY    31  31  99 N3        29.84S FOG
$$
MNZ037-044-045-052-053-290300-
   East Central Minnesota

CITY           SKY/WX    TMP DP  RH WIND       PRES   REMARKS
PRINCETON      CLOUDY    28  28 100 CALM      29.85S FOG
MORA           CLOUDY    28  27  93 CALM      29.86S
CAMBRIDGE      HAZE      30  25  80 CALM      29.83S VSB 1
RUSH CITY      CLOUDY    29  28  94 CALM      29.85S FOG
MOOSE LAKE     CLOUDY    30  27  86 CALM      29.83S FOG
HINCKLEY       CLOUDY    30  30 100 CALM      29.84F FOG
CLOQUET        CLOUDY    28  25  86 SW6       29.83S FOG     WCI  22
MCGREGOR       CLOUDY    28  27  93 CALM      29.84S
$$
MNZ071>073-080-081-089-090-097-098-290300-
   Southwest Minnesota

CITY           SKY/WX    TMP DP  RH WIND       PRES   REMARKS
MONTEVIDEO     FOG       32  32 100 N7        29.85R VSB 3/4 WCI  26
GRANITE FALLS  FOG       32  32  99 CALM      29.85R VSB 1
CANBY          CLOUDY    33  32  95 NW7       29.86R FOG     WCI  27
MARSHALL       CLOUDY    34  28  80 CALM      29.83S
REDWOOD FALLS  FOG       33  32  96 NW6       29.81S VSB 1/2 WCI  28
OLIVIA         CLOUDY    32  32 100 N5        29.82R FOG     WCI  27
PIPESTONE      CLOUDY    36  34  93 N12G20    29.80R
WINDOM         CLOUDY    34  34 100 CALM      29.78S FOG
WORTHINGTON    CLOUDY    32  30  93 NW6       29.79R VSB 3/4 WCI  26
JACKSON        CLOUDY    32  32 100 NW8       29.78R FOG     WCI  25
TRACY          CLOUDY    33  32  96 N5        29.81R FOG     WCI  29
SLAYTON        CLOUDY    32  32  99 CALM      29.80R FOG
$$
MNZ065>067-074>077-082>085-091>093-290300-
   South Central Minnesota

CITY           SKY/WX    TMP DP  RH WIND       PRES   REMARKS
MANKATO        CLOUDY    34  28  80 N6        29.79S WCI  29
NEW ULM        FOG       32  32 100 CALM      29.80S VSB 1
ST JAMES       CLOUDY    34  32  93 NW5       29.80S FOG     WCI  30
FAIRMONT       CLOUDY    34  28  80 N10       29.77R WCI  26
GLENCOE        FOG       33  33  99 CALM      29.81S VSB 1
FARIBAULT      CLOUDY    34  30  86 CALM      29.79F FOG
OWATONNA       PTCLDY    34  30  86 CALM      29.78S FOG
WASECA         CLOUDY    32  30  93 N3        29.79S FOG
ALBERT LEA     CLOUDY    34  32  93 E5        29.75S FOG     WCI  30
$$
MNZ078>079-086>088-094>096-290300-
   Southeast Minnesota

CITY           SKY/WX    TMP DP  RH WIND       PRES   REMARKS
ROCHESTER      CLOUDY    32  28  85 SE7       29.78S WCI  26
RED WING       CLOUDY    34  27  75 CALM      29.81S
STANTON        CLOUDY    32  28  86 NE3       29.80R
DODGE CENTER   CLOUDY    32  30  93 SE7       29.77S FOG     WCI  26
WINONA         CLOUDY    34  27  75 SE3       29.82S
AUSTIN         CLOUDY    34  30  86 SE5       29.76S WCI  30
PRESTON        CLOUDY    31  27  84 SE6       29.78R WCI  25
$$
ABBREVIATIONS USED IN REMARKS
   TC - TEMPERATURES IN CELSIUS
  WCI - WIND CHILL INDEX
   HX - HEAT INDEX
  VSB - VISIBILITY
$$


USA.gov is the U.S. government's official web portal to all federal, state and local government web resources and services.